Weather History for Golden Triangle, MS

Change the Weather History Date:

Thursday, September 5, 2013

  Actual Average Record
Temperature  
Mean Temperature 78 °F -  
Max Temperature 93 °F 87 °F 98 °F (1999)
Min Temperature 62 °F 65 °F 51 °F (2010)
Cooling Degree Days 12    
Growing Degree Days 28 (Base 50)    
Moisture  
Dew Point 63 °F    
Average Humidity 73    
Maximum Humidity 94    
Minimum Humidity 36    
Precipitation  
Precipitation 0.00 in - - ()
Sea Level Pressure  
Sea Level Pressure 30.09 in    
Wind  
Wind Speed 3 mph (NE)    
Max Wind Speed 9 mph    
Max Gust Speed -    
Visibility 9 miles    
Events      
Averages and records for this station are not official NWS values.
T = Trace of Precipitation, MM = Missing Value Source: NWS Daily Summary

Daily Weather History Graph

Daily Weather History Graph

Search for Another Location

Airport:

Trip Planner

Search our weather history database for the weather conditions in past years. The results will help you decide how hot, cold, wet, or windy it might be!

Date:

Astronomy

Sep. 05, 2013 Rise Set
Actual Time 6:31 AM CDT 7:14 PM CDT
Civil Twilight 6:06 AM CDT 7:39 PM CDT
Nautical Twilight 5:36 AM CDT 8:08 PM CDT
Astronomical Twilight 5:06 AM CDT 8:39 PM CDT
Moon 6:39 AM CDT (9/5) 7:10 PM CDT (9/5)
Length of Visible Light 13h 33m
Length of Day
12h 42m
New Moon, 0% of the Moon is Illuminated
Sep 5
New Moon
Sep 12
First Quarter
Sep 19
Full
Sep 26
Last Quarter
Oct 4
New

Hourly Weather History & Observations

Time (CDT) Temp. Heat Index Dew Point Humidity Pressure Visibility Wind Dir Wind Speed Gust Speed Precip Events Conditions
12:15 AM 69.8 °F - 62.6 °F 78% 30.09 in 10.0 mi NNE 3.5 mph - N/A   Clear
12:35 AM 69.8 °F - 62.6 °F 78% 30.09 in 10.0 mi Calm Calm - N/A   Clear
12:55 AM 69.8 °F - 64.4 °F 83% 30.09 in 10.0 mi North 5.8 mph - N/A   Clear
1:15 AM 68.0 °F - 62.6 °F 83% 30.09 in 10.0 mi North 4.6 mph - N/A   Clear
1:35 AM 68.0 °F - 62.6 °F 83% 30.08 in 10.0 mi North 5.8 mph - N/A   Clear
1:55 AM 68.0 °F - 64.4 °F 88% 30.08 in 10.0 mi North 3.5 mph - N/A   Clear
2:15 AM 66.2 °F - 62.6 °F 88% 30.08 in 10.0 mi Calm Calm - N/A   Clear
2:35 AM 66.2 °F - 62.6 °F 88% 30.07 in 10.0 mi Calm Calm - N/A   Clear
2:55 AM 66.2 °F - 62.6 °F 88% 30.08 in 9.0 mi Calm Calm - N/A   Clear
3:15 AM 64.4 °F - 62.6 °F 94% 30.08 in 8.0 mi West 3.5 mph - N/A   Clear
3:35 AM 66.2 °F - 62.6 °F 88% 30.08 in 10.0 mi Calm Calm - N/A   Clear
3:55 AM 64.4 °F - 62.6 °F 94% 30.09 in 9.0 mi Calm Calm - N/A   Clear
4:15 AM 62.6 °F - 60.8 °F 94% 30.09 in 9.0 mi Calm Calm - N/A   Clear
4:35 AM 64.4 °F - 62.6 °F 94% 30.09 in 8.0 mi Calm Calm - N/A   Clear
4:55 AM 64.4 °F - 62.6 °F 94% 30.09 in 8.0 mi North 4.6 mph - N/A   Clear
5:15 AM 62.6 °F - 60.8 °F 94% 30.10 in 7.0 mi SW 3.5 mph - N/A   Clear
5:35 AM 62.6 °F - 60.8 °F 94% 30.10 in 7.0 mi NW 3.5 mph - N/A   Clear
5:50 AM 64.4 °F - 62.6 °F 94% - 8.0 mi NNW 4.6 mph - N/A   Clear
6:55 AM 64.4 °F - 62.6 °F 94% - 6.0 mi North 4.6 mph - N/A   Clear
7:50 AM 68.0 °F - 66.2 °F 94% - 8.0 mi North 4.6 mph - N/A   Clear
8:55 AM 75.2 °F - 66.2 °F 73% - 10.0 mi NE 4.6 mph - N/A   Clear
9:55 AM 80.6 °F 82.7 °F 66.2 °F 61% - 10.0 mi ENE 4.6 mph - N/A   Clear
10:50 AM 86.0 °F 87.3 °F 64.4 °F 48% - 6.0 mi ESE 4.6 mph - N/A   Haze
11:50 AM 87.8 °F 89.4 °F 64.4 °F 46% - 6.0 mi Calm Calm - N/A   Haze
12:50 PM 91.4 °F 93.2 °F 64.4 °F 41% - 6.0 mi SSE 4.6 mph - N/A   Haze
1:50 PM 91.4 °F 92.1 °F 62.6 °F 38% - 6.0 mi East 6.9 mph - N/A   Haze
2:50 PM 93.2 °F 94.1 °F 62.6 °F 36% - 6.0 mi NNE 4.6 mph - N/A   Haze
4:50 PM 93.2 °F 94.1 °F 62.6 °F 36% - 6.0 mi NNE 9.2 mph - N/A   Haze
5:50 PM 89.6 °F 89.5 °F 60.8 °F 38% - 6.0 mi NE 9.2 mph - N/A   Haze
6:55 PM 86.0 °F 87.3 °F 64.4 °F 48% - 8.0 mi NE 6.9 mph - N/A   Clear
7:50 PM 80.6 °F 82.3 °F 64.4 °F 58% - 10.0 mi ENE 4.6 mph - N/A   Clear
8:15 PM 80.6 °F 82.3 °F 64.4 °F 58% 30.07 in 10.0 mi ENE 5.8 mph - N/A   Clear
8:35 PM 78.8 °F - 64.4 °F 61% 30.08 in 10.0 mi ENE 3.5 mph - N/A   Clear
8:55 PM 78.8 °F - 62.6 °F 57% 30.09 in 10.0 mi East 4.6 mph - N/A   Clear
9:15 PM 78.8 °F - 64.4 °F 61% 30.09 in 10.0 mi East 3.5 mph - N/A   Clear
9:35 PM 75.2 °F - 64.4 °F 69% 30.10 in 5.0 mi East 3.5 mph - N/A   Clear
9:55 PM 75.2 °F - 64.4 °F 69% 30.11 in 10.0 mi ESE 3.5 mph - N/A   Clear
10:15 PM 75.2 °F - 64.4 °F 69% 30.11 in 10.0 mi SE 3.5 mph - N/A   Clear
10:35 PM 73.4 °F - 64.4 °F 73% 30.12 in 10.0 mi Calm Calm - N/A   Clear
10:55 PM 73.4 °F - 64.4 °F 73% 30.12 in 10.0 mi NNE 8.1 mph - N/A   Clear
11:15 PM 73.4 °F - 64.4 °F 73% 30.13 in 10.0 mi Calm Calm - N/A   Clear
11:35 PM 73.4 °F - 64.4 °F 73% 30.13 in 10.0 mi Calm Calm - N/A   Clear
11:55 PM 71.6 °F - 64.4 °F 78% 30.12 in 10.0 mi Calm Calm - N/A   Clear